Weather History for Ciudad Victoria, Mexico

Change the Weather History Date:

Monday, February 11, 2013

  Actual Average Record
Temperature  
Mean Temperature 76 °F -  
Max Temperature 91 °F 81 °F 91 °F (2013)
Min Temperature 62 °F 58 °F 39 °F (2011)
Cooling Degree Days 12    
Growing Degree Days 26 (Base 50)    
Moisture  
Dew Point 59 °F    
Average Humidity 55    
Maximum Humidity 95    
Minimum Humidity 27    
Precipitation  
Precipitation 0.00 in - - ()
Sea Level Pressure  
Sea Level Pressure 29.89 in    
Wind  
Wind Speed 5 mph ()    
Max Wind Speed 12 mph    
Max Gust Speed -    
Visibility 5.2 miles    
Events      
Averages and records for this station are not official NWS values.
T = Trace of Precipitation, MM = Missing Value Source: Averaged Metar Reports

Daily Weather History Graph

Daily Weather History Graph

Search for Another Location

Airport:

Trip Planner

Search our weather history database for the weather conditions in past years. The results will help you decide how hot, cold, wet, or windy it might be!

Date:

Astronomy

Feb. 11, 2013 Rise Set
Actual Time 7:11 AM CST 6:29 PM CST
Civil Twilight 6:47 AM CST 6:52 PM CST
Nautical Twilight 6:21 AM CST 7:19 PM CST
Astronomical Twilight 5:54 AM CST 7:45 PM CST
Moon 7:52 AM CST (2/11) 8:07 PM CST (2/11)
Length of Visible Light 12h 04m
Length of Day
11h 18m
Waxing Crescent, 3% of the Moon is Illuminated
Feb 11
Waxing Crescent
Feb 17
First Quarter
Feb 25
Full
Mar 4
Last Quarter
Mar 11
New

Hourly Weather History & Observations

Time (CST) Temp. Heat Index Dew Point Humidity Pressure Visibility Wind Dir Wind Speed Gust Speed Precip Events Conditions
2:45 AM 72 °F - 66 °F 75% 29.88 in 4 mi North 2.2 mph - -  
5:45 AM 64 °F - 61 °F 88% 29.93 in 4 mi WNW 2.2 mph - -  
6:01 AM 64.4 °F - 51.8 °F 64% 29.90 in 6.0 mi WNW 8.1 mph - N/A   Clear
6:44 AM 64.4 °F - 51.8 °F 64% 29.92 in 6.0 mi WNW 6.9 mph - N/A   Scattered Clouds
7:40 AM 64.4 °F - 51.8 °F 64% 29.94 in 4.0 mi NW 9.2 mph - N/A   Mostly Cloudy
8:40 AM 68.0 °F - 51.8 °F 56% 29.95 in 4.0 mi NW 10.4 mph - N/A   Mostly Cloudy
8:50 AM 69 °F - 66 °F 88% 29.99 in 6 mi North 2.2 mph - -  
9:40 AM 73.4 °F - 51.8 °F 47% 29.97 in 4.0 mi NW 5.8 mph - N/A   Partly Cloudy
10:40 AM 75.2 °F - 53.6 °F 47% 29.96 in 4.0 mi North 8.1 mph - N/A   Clear
11:41 AM 78.8 °F - 55.4 °F 44% 29.93 in 5.0 mi North 6.9 mph - N/A   Clear
11:45 AM 81 °F - 65 °F 49% 29.98 in 6 mi North 2.2 mph - -  
12:41 PM 82.4 °F 81.7 °F 55.4 °F 39% 29.89 in 5.0 mi East 6.9 mph - N/A   Clear
1:40 PM 86.0 °F 84.2 °F 53.6 °F 33% 29.85 in 5.0 mi NE 6.9 mph - N/A   Clear
2:50 PM 89 °F - 63 °F 32% 29.87 in 6 mi NNE 2.2 mph - -  
3:42 PM 89.6 °F - 51.8 °F 27% 29.78 in 6.0 mi North 6.9 mph - N/A   Clear
4:40 PM 89.6 °F 88.1 °F 57.2 °F 33% 29.78 in 6.0 mi NW 5.8 mph - N/A   Clear
5:47 PM 87.8 °F 86.5 °F 57.2 °F 35% 29.78 in 6.0 mi ENE 8.1 mph - N/A   Clear
5:50 PM 86 °F - 62 °F 34% 29.81 in 6 mi Calm Calm - -  
6:46 PM 82.4 °F 83.4 °F 62.6 °F 51% 29.80 in 6.0 mi East 11.5 mph - N/A   Partly Cloudy
7:47 PM 77.0 °F - 64.4 °F 65% 29.83 in 6.0 mi ENE 11.5 mph - N/A   Clear
8:40 PM 75.2 °F - 64.4 °F 69% 29.86 in 6.0 mi ESE 3.5 mph - N/A   Clear
8:45 PM 78 °F - 69 °F 67% 29.88 in 4 mi North 2.2 mph - -  
11:45 PM 68 °F - 67 °F 95% 29.89 in 4 mi Calm Calm - -